Date,TemperatureHighF,TemperatureAvgF,TemperatureLowF,DewpointHighF,DewpointAvgF,DewpointLowF,HumidityHigh,HumidityAvg,HumidityLow,PressureMaxIn,PressureMinIn,WindSpeedMaxMPH,WindSpeedAvgMPH,GustSpeedMaxMPH,PrecipitationSumIn
2014-1-1,21,17,13,21,17,11,100,98,91,30.31,30.17,2,1,8,0.00
2014-1-2,17,13,-1,17,7,-5,98,76,49,30.35,30.09,6,2,19,0.00
2014-1-3,18,8,-6,9,0,-11,91,72,49,30.43,29.97,6,2,20,0.00
2014-1-4,38,28,18,38,21,8,100,77,60,29.97,29.83,4,1,18,0.01
2014-1-5,42,33,24,42,33,23,100,100,100,29.96,29.76,14,3,24,0.00
2014-1-6,25,6,0,25,3,-5,100,87,75,30.14,29.81,11,6,30,0.00
2014-1-7,8,3,-2,5,0,-7,89,84,77,30.32,30.13,6,2,17,0.00
2014-1-8,22,12,-1,22,10,-5,100,91,75,30.49,30.29,2,0,5,0.00
2014-1-9,30,14,1,30,12,-2,100,93,75,30.52,30.18,3,1,7,0.00
2014-1-10,56,22,30,56,-27,-100,100,52,100,30.18,29.48,7,-466,13,0.88
2014-1-11,49,18,41,49,-42,-100,100,41,95,29.66,29.31,7,-585,19,0.10
2014-1-12,47,40,36,41,36,32,100,88,60,29.85,29.60,6,3,19,0.00
2014-1-13,46,42,35,42,38,35,100,84,65,29.67,29.47,6,2,16,0.00
2014-1-14,38,33,27,37,30,21,100,90,61,29.72,29.56,7,3,24,0.00
2014-1-15,27,23,16,27,21,13,100,90,68,29.99,29.72,9,4,21,0.00
2014-1-16,43,28,16,42,28,14,100,98,84,29.88,29.49,5,2,14,0.00
2014-1-17,33,22,16,33,21,14,100,93,80,29.91,29.59,5,2,14,0.00
2014-1-18,21,19,16,21,17,11,100,92,69,29.88,29.78,5,1,11,0.00
2014-1-19,39,28,17,36,26,17,100,93,80,29.82,29.45,8,2,22,0.00
2014-1-20,39,28,15,37,26,9,100,90,75,30.02,29.46,9,3,20,0.05
2014-1-21,15,11,6,10,-1,-7,82,58,37,30.23,30.03,5,2,13,0.00
2014-1-22,15,10,6,15,4,-5,100,77,53,30.16,29.87,7,2,25,0.00
2014-1-23,16,14,10,16,8,0,100,78,51,30.47,30.00,8,3,19,0.00
2014-1-24,26,11,-5,26,4,-11,100,74,49,30.46,29.46,4,2,18,0.00
2014-1-25,38,22,14,37,15,0,100,75,51,29.78,29.29,14,7,28,0.00
2014-1-26,30,18,7,28,14,2,100,84,57,29.77,29.33,13,3,26,0.00
2014-1-27,19,7,2,17,3,-8,100,82,54,30.33,29.55,12,6,28,0.00
2014-1-28,10,4,-5,5,-2,-11,95,77,66,30.38,30.18,7,1,14,0.00
2014-1-29,19,14,10,7,2,-1,71,60,43,30.18,30.04,8,3,21,0.00
2014-1-30,34,24,17,34,15,4,100,69,47,30.04,29.66,6,2,19,0.00
2014-1-31,34,26,23,34,23,18,100,87,71,30.10,29.79,8,2,17,0.00
2014-2-1,39,30,24,39,30,24,100,100,100,30.07,29.78,2,0,6,0.00
2014-2-2,29,23,9,29,20,9,100,88,72,30.27,29.98,7,2,13,0.00
2014-2-3,25,11,-2,16,6,-6,100,82,57,30.37,30.26,4,0,10,0.00
2014-2-4,26,16,4,24,12,0,100,84,59,30.41,30.08,3,0,10,0.00
2014-2-5,27,22,19,27,19,12,100,90,65,30.36,29.96,9,4,17,0.00
2014-2-6,20,13,6,18,10,1,100,85,75,30.36,30.31,5,1,17,0.00
2014-2-7,14,9,2,8,2,-5,93,73,55,30.35,30.29,6,2,14,0.00
2014-2-8,18,12,4,16,7,-2,100,80,54,30.33,30.12,3,0,8,0.00
2014-2-9,21,18,16,21,16,11,100,93,73,30.19,30.05,6,2,14,0.00
2014-2-10,18,14,12,13,9,4,96,79,68,30.39,30.19,7,2,14,0.00
2014-2-11,19,11,-1,10,5,-5,98,75,52,30.49,30.39,4,1,11,0.00
2014-2-12,24,9,-9,11,0,-14,92,68,44,30.41,30.01,4,1,10,0.00
2014-2-13,32,22,9,29,11,4,100,64,37,30.01,29.43,7,2,17,0.00
2014-2-14,28,23,21,28,21,17,100,91,79,29.84,29.45,9,5,22,0.00
2014-2-15,26,20,17,17,15,8,98,80,57,30.05,29.84,4,1,10,0.00
2014-2-16,28,21,9,26,19,8,100,93,69,30.27,29.90,7,2,17,0.00
2014-2-17,29,20,8,29,17,6,100,91,65,30.28,29.63,8,3,18,0.00
2014-2-18,46,36,27,31,27,22,100,73,49,29.95,29.59,9,4,19,0.44
2014-2-19,45,37,31,36,31,24,100,80,44,29.96,29.56,7,2,14,0.10
2014-2-20,56,35,33,56,18,-100,100,81,80,29.96,29.22,10,-152,18,0.37
2014-2-21,45,36,33,42,28,16,100,74,50,29.73,29.32,9,4,27,0.01
2014-2-22,35,30,26,26,16,10,71,56,38,29.98,29.73,8,3,22,0.00
2014-2-23,28,23,21,18,14,11,80,67,54,30.14,29.98,8,4,19,0.00
2014-2-24,24,21,18,13,11,8,78,67,52,30.20,30.11,9,5,19,0.00
2014-2-25,22,19,14,20,11,0,100,71,52,30.16,30.05,8,4,22,0.00
2014-2-26,18,12,9,9,2,-5,93,64,42,30.13,29.59,9,4,25,0.00
2014-2-27,19,10,2,16,2,-10,100,72,44,30.19,29.55,13,6,30,0.00
2014-2-28,24,11,-5,12,-2,-10,86,59,36,30.26,30.00,7,2,18,0.00
2014-3-1,27,21,14,27,17,11,100,83,62,30.28,29.98,8,3,17,0.00
2014-3-2,20,14,4,13,8,-2,92,76,59,30.39,30.25,10,2,19,0.00
2014-3-3,14,6,-7,0,-5,-12,86,62,33,30.49,30.38,5,1,11,0.00
2014-3-4,23,15,3,11,4,-3,86,62,38,30.38,30.17,3,0,10,0.00
2014-3-5,28,21,16,20,13,6,100,72,49,30.45,30.23,4,1,12,0.05
2014-3-6,33,22,10,18,10,5,81,61,42,30.44,30.10,6,1,14,0.01
2014-3-7,46,32,15,36,19,12,100,64,25,30.09,29.84,4,1,10,0.10
2014-3-8,37,29,21,37,27,20,100,92,71,30.21,29.89,9,4,17,0.01
2014-3-9,40,30,17,35,24,17,100,81,50,30.20,29.78,3,1,12,0.00
2014-3-10,54,45,40,40,35,32,89,67,50,29.76,29.55,4,2,18,0.00
2014-3-11,47,41,37,42,37,32,100,87,60,29.70,29.58,4,1,12,0.01
2014-3-12,44,28,16,44,25,10,100,91,71,30.05,29.57,7,2,17,0.06
2014-3-13,31,23,2,29,16,-2,96,76,61,30.14,29.84,2,0,8,0.00
2014-3-14,51,42,31,36,33,30,97,72,47,29.84,29.50,10,3,22,0.53
2014-3-15,38,33,29,34,26,15,91,74,56,30.24,29.74,8,4,20,0.00
2014-3-16,29,21,12,16,4,-3,61,48,34,30.35,30.17,5,2,20,0.00
2014-3-17,34,22,10,19,7,-5,74,53,31,30.16,29.81,6,2,14,0.00
2014-3-18,46,35,24,36,26,18,87,71,55,29.91,29.70,8,3,18,0.00
2014-3-19,51,30,37,51,-2,-100,100,67,81,29.86,29.51,9,-304,17,0.37
2014-3-20,41,36,29,36,28,21,97,74,50,30.01,29.86,7,4,18,0.00
2014-3-21,48,38,27,46,34,26,100,85,62,30.01,29.62,9,2,18,0.05
2014-3-22,46,34,27,46,31,19,100,89,73,30.24,29.65,9,5,19,0.05
2014-3-23,28,23,17,19,11,6,75,60,46,30.38,30.24,8,3,19,0.00
2014-3-24,30,23,16,17,10,1,85,59,31,30.35,30.04,7,2,16,0.00
2014-3-25,28,24,20,26,14,6,100,68,43,30.17,29.92,11,5,25,0.00
2014-3-26,36,26,15,20,12,5,97,56,35,30.30,30.01,5,2,14,0.00
2014-3-27,48,40,35,47,32,13,100,79,38,30.01,29.46,5,3,17,0.08
2014-3-28,54,40,30,53,38,29,100,93,79,30.13,29.40,11,4,26,0.10
2014-3-29,41,35,30,37,33,30,100,92,74,30.17,30.08,8,2,18,0.00
2014-3-30,55,39,26,34,28,23,100,71,33,30.22,30.02,6,1,12,0.00
2014-3-31,66,51,35,39,32,26,91,53,23,30.06,29.73,10,4,25,0.00
2014-4-1,60,44,36,44,32,23,75,63,35,30.02,29.62,9,4,24,0.01
2014-4-2,47,40,30,32,29,25,100,66,46,30.13,30.00,7,2,14,0.00
2014-4-3,47,43,36,47,37,28,100,83,51,30.04,29.69,11,4,18,0.65
2014-4-4,50,27,37,49,-9,-100,100,61,82,29.83,29.38,10,-347,22,0.07
2014-4-5,45,38,32,34,25,13,91,64,28,30.16,29.83,11,4,25,0.05
2014-4-6,55,43,30,32,24,18,73,50,25,30.14,29.92,4,1,12,0.00
2014-4-7,57,42,30,34,30,22,100,66,28,29.92,29.52,4,0,14,0.00
2014-4-8,48,40,36,39,36,31,100,84,66,29.85,29.52,9,3,18,0.00
2014-4-9,59,46,32,43,33,25,100,66,30,29.97,29.81,7,1,14,0.00
2014-4-10,65,54,41,42,36,-100,99,53,37,29.84,29.62,6,2,19,0.00
2014-4-11,65,50,34,45,27,13,100,56,14,29.97,29.83,6,1,14,0.00
2014-4-12,68,52,43,40,33,27,67,50,24,29.97,29.85,6,1,16,0.00